GW3763 Weather Reports


Display with metric or nautical units.
time (UTC)temp
F
wind
direction
speed
MPH
gust
MPH
rain 1hr
in
rain 24hr
in
rain mn
in
humidity
%
barometer
mb
20260510033740 0 207 0.0 0.0 0.00 0.92 0.92 1007.5
20260510033238 0 207 0.0 0.0 0.00 0.92 0.92 1007.3
20260510032734 0 208 0.0 0.0 0.00 0.92 0.92 1007.2
20260510032230 0 207 0.0 0.0 0.00 0.92 0.92 1007.1
20260510031725 0 207 0.0 0.0 0.00 0.92 0.92 1006.8
20260510031222 0 207 0.0 0.0 0.00 0.92 0.92 1006.5
20260510030721 0 207 0.0 0.0 0.00 0.92 0.92 1006.6
20260510030219 0 207 0.0 0.0 0.00 0.92 0.92 1006.6
20260510025716 0 208 0.0 0.0 0.00 0.92 0.92 1007.0
20260510025213 0 209 0.0 1.0 0.00 0.92 0.92 1006.7
20260510024710 0 209 0.0 0.0 0.00 0.92 0.92 1007.0
20260510024207 0 209 0.0 2.0 0.00 0.92 0.92 1006.8
20260510023702 0 209 0.0 0.0 0.00 0.92 0.92 1006.7
20260510023159 0 209 0.0 0.0 0.00 0.92 0.92 1007.0
20260510022655 0 209 0.0 2.0 0.00 0.92 0.92 1006.7
20260510022150 0 209 1.0 2.0 0.00 0.92 0.92 1006.7
20260510021640 0 209 0.0 0.0 0.00 0.92 0.92 1006.7
20260510021138 0 211 1.0 2.0 0.00 0.92 0.92 1006.7
20260510020638 0 211 0.0 0.0 0.00 0.92 0.92 1006.6
20260510020133 0 211 0.0 0.0 0.00 0.92 0.92 1006.7
20260510015629 0 213 0.0 0.0 0.00 0.92 0.92 1006.7
20260510015126 0 210 1.0 1.0 0.00 0.92 0.92 1006.7
20260510014621 0 210 0.0 1.0 0.00 0.92 0.92 1006.5
20260510014119 0 212 0.0 3.0 0.00 0.92 0.92 1006.5
20260510013619 0 207 1.0 2.0 0.00 0.92 0.92 1006.5
20260510013115 0 206 2.0 3.0 0.00 0.92 0.92 1006.4
20260510012614 0 207 0.0 0.0 0.00 0.92 0.92 1006.5
20260510012111 0 212 1.0 2.0 0.00 0.92 0.92 1006.7
20260510011610 0 224 1.0 2.0 0.00 0.92 0.92 1006.6
20260510011106 0 210 0.0 0.0 0.00 0.92 0.92 1006.4
20260510010603 0 204 0.0 2.0 0.00 0.92 0.92 1006.3
20260510010100 0 207 0.0 2.0 0.00 0.92 0.92 1006.3
20260510005555 0 208 0.0 1.0 0.00 0.92 0.92 1006.1
20260510005053 0 208 0.0 2.0 0.00 0.92 0.92 1006.3
20260510004551 0 209 0.0 0.0 0.00 0.92 0.92 1005.9
20260510004049 0 200 1.0 2.0 0.00 0.92 0.92 1006.0
20260510003545 0 209 0.0 2.0 0.00 0.92 0.92 1005.9
20260510003041 0 213 0.0 4.0 0.00 0.92 0.92 1006.0
20260510002536 0 208 1.0 2.0 0.00 0.92 0.92 1005.8
20260510002034 0 208 1.0 2.0 0.00 0.92 0.92 1006.0
20260510001531 0 201 1.0 2.0 0.00 0.92 0.92 1006.0
20260510001029 0 211 0.0 0.0 0.00 0.92 0.92 1006.1
20260510000524 0 211 0.0 0.0 0.00 0.92 0.92 1005.8
20260510000021 0 211 0.0 0.0 0.00 0.92 0.92 1005.8
20260509235518 0 211 0.0 0.0 0.00 0.92 0.92 1005.9
20260509235015 0 211 0.0 0.0 0.00 0.92 0.92 1005.8
20260509234511 0 211 0.0 0.0 0.00 0.92 0.92 1005.6
20260509234009 0 210 0.0 0.0 0.00 0.92 0.92 1005.4
20260509233506 0 215 0.0 0.0 0.00 0.92 0.92 1005.5
20260509233002 0 211 1.0 2.0 0.00 0.92 0.92 1005.6
20260509232500 0 215 1.0 1.0 0.00 0.92 0.92 1005.4
20260509231956 0 207 0.0 0.0 0.00 0.92 0.92 1005.4
20260509231453 0 213 0.0 0.0 0.00 0.92 0.92 1005.3
20260509230951 0 207 0.0 1.0 0.00 0.92 0.92 1005.4
20260509230447 0 217 0.0 6.0 0.00 0.92 0.92 1005.4
20260509225943 0 214 0.0 1.0 0.00 0.92 0.92 1005.5
20260509225440 0 210 0.0 3.0 0.00 0.92 0.92 1005.6
20260509224936 0 214 0.0 1.0 0.00 0.92 0.92 1005.5
20260509224431 0 214 1.0 2.0 0.00 0.92 0.92 1005.6
20260509223929 0 209 0.0 3.0 0.00 0.92 0.92 1005.5
20260509223425 0 211 0.0 0.0 0.00 0.92 0.92 1005.5
20260509222923 0 188 1.0 2.0 0.00 0.92 0.92 1005.6
20260509222418 0 211 0.0 2.0 0.00 0.92 0.92 1005.4
20260509221913 0 200 2.0 3.0 0.00 0.92 0.92 1005.4
20260509221405 0 208 1.0 3.0 0.00 0.92 0.92 1005.4
20260509220901 0 207 1.0 2.0 0.00 0.92 0.92 1005.5
20260509220357 0 210 0.0 1.0 0.00 0.92 0.92 1005.6
20260509215852 0 203 1.0 2.0 0.00 0.92 0.92 1005.5
20260509215344 0 209 0.0 3.0 0.00 0.92 0.92 1005.5
20260509214840 0 210 1.0 3.0 0.00 0.92 0.92 1005.6
20260509214338 0 208 3.0 3.0 0.00 0.92 0.92 1005.5
20260509213835 0 193 1.0 3.0 0.00 0.92 0.92 1005.7
20260509213329 0 202 1.0 3.0 0.00 0.92 0.92 1006.0
20260509212828 0 209 0.0 2.0 0.00 0.92 0.92 1006.0
20260509212325 0 210 0.0 4.0 0.00 0.92 0.92 1006.0
20260509211821 0 209 2.0 4.0 0.00 0.92 0.92 1005.9
20260509211317 0 227 2.0 3.0 0.00 0.92 0.92 1005.9
20260509210813 0 207 2.0 6.0 0.00 0.92 0.92 1006.0
20260509210306 0 211 0.0 4.0 0.00 0.92 0.92 1005.9
20260509205805 0 213 1.0 2.0 0.00 0.92 0.92 1005.9
20260509205300 0 189 3.0 6.0 0.00 0.92 0.92 1006.0
20260509204756 0 209 1.0 2.0 0.00 0.92 0.92 1006.0
20260509204252 0 212 0.0 3.0 0.00 0.92 0.92 1005.9
20260509203748 0 241 2.0 4.0 0.00 0.92 0.92 1006.1
20260509203246 0 216 1.0 2.0 0.00 0.92 0.92 1006.0
20260509202742 0 210 1.0 4.0 0.00 0.92 0.92 1006.0
20260509202238 0 212 0.0 2.0 0.05 0.92 0.92 1006.2
20260509201732 0 220 2.0 3.0 0.05 0.92 0.92 1006.1
20260509201229 0 233 1.0 3.0 0.00 0.91 0.91 1006.1
20260509200726 0 214 2.0 3.0 0.00 0.91 0.91 1006.3
20260509200222 0 205 1.0 4.0 0.00 0.91 0.91 1006.3
20260509195717 0 216 5.0 6.0 0.00 0.91 0.91 1006.3
20260509195212 0 210 1.0 6.0 0.07 0.91 0.91 1006.3
20260509194707 0 213 2.0 3.0 0.07 0.91 0.91 1006.3
20260509194204 0 222 1.0 4.0 0.00 0.90 0.90 1006.4
20260509193701 0 214 1.0 6.0 0.05 0.90 0.90 1006.6
20260509193156 0 195 2.0 4.0 0.12 0.89 0.89 1006.5
20260509192652 0 199 2.0 3.0 0.12 0.88 0.88 1006.5
20260509192147 0 214 1.0 3.0 0.12 0.87 0.87 1006.5
20260509191647 0 207 1.0 3.0 0.12 0.86 0.86 1006.6
20260509191144 0 208 1.0 3.0 0.07 0.85 0.85 1006.7
20260509190640 0 213 3.0 3.0 0.07 0.84 0.84 1006.4
20260509190137 0 201 1.0 3.0 0.07 0.84 0.84 1006.6
20260509185636 0 191 0.0 2.0 0.00 0.83 0.83 1006.5
20260509185131 0 216 2.0 2.0 0.00 0.83 0.83 1006.8
20260509184624 0 233 4.0 6.0 0.05 0.83 0.83 1006.6
20260509184120 0 229 2.0 3.0 0.05 0.83 0.83 1006.7
20260509183617 0 219 3.0 7.0 0.00 0.82 0.82 1006.8
20260509183112 0 222 1.0 3.0 0.07 0.82 0.82 1006.7
20260509182608 0 234 1.0 6.0 0.12 0.82 0.82 1006.7
20260509182105 0 204 7.0 9.0 0.12 0.81 0.81 1006.7
20260509181604 0 215 1.0 8.0 0.07 0.80 0.80 1006.6
20260509181100 0 252 3.0 4.0 0.05 0.79 0.79 1006.7
20260509180556 0 219 3.0 7.0 0.07 0.78 0.78 1006.4
20260509180054 0 179 2.0 3.0 0.07 0.78 0.78 1006.6
20260509175549 0 210 0.0 3.0 0.12 0.77 0.77 1006.5
20260509175046 0 215 1.0 3.0 0.12 0.76 0.76 1006.5
20260509174542 0 205 2.0 4.0 0.17 0.75 0.75 1006.6
20260509174037 0 211 3.0 4.0 0.19 0.74 0.74 1006.5
20260509173532 0 212 2.0 4.0 0.14 0.72 0.72 1006.5
20260509173029 0 226 3.0 4.0 0.12 0.71 0.71 1006.6
20260509172526 0 214 0.0 4.0 0.05 0.70 0.70 1006.5
20260509172021 0 205 2.0 4.0 0.07 0.69 0.69 1006.6
20260509171517 0 189 4.0 6.0 0.07 0.69 0.69 1006.5
20260509171009 0 191 0.0 2.0 0.00 0.68 0.68 1006.5
20260509170504 0 218 2.0 4.0 0.05 0.68 0.68 1006.5
20260509170000 0 213 0.0 2.0 0.05 0.68 0.68 1006.6
20260509165459 0 216 0.0 1.0 0.07 0.67 0.67 1006.5
20260509164955 0 220 1.0 7.0 0.07 0.67 0.67 1006.6
20260509164451 0 222 2.0 4.0 0.05 0.66 0.66 1006.7
20260509163947 0 209 0.0 2.0 0.05 0.66 0.66 1006.7
20260509163445 0 206 1.0 3.0 0.07 0.65 0.65 1006.7
20260509162944 0 213 2.0 2.0 0.07 0.65 0.65 1007.0
20260509162443 0 190 1.0 2.0 0.00 0.64 0.64 1006.5
20260509161938 0 191 3.0 3.0 0.05 0.64 0.64 1007.0
20260509161435 0 209 1.0 3.0 0.05 0.64 0.64 1007.0
20260509160930 0 205 2.0 8.0 0.00 0.63 0.63 1007.0
20260509160427 0 210 2.0 4.0 0.00 0.63 0.63 1007.1
20260509155921 0 176 4.0 6.0 0.00 0.63 0.63 1007.1
20260509155413 0 182 1.0 3.0 0.00 0.63 0.63 1007.1
20260509154909 0 196 3.0 4.0 0.07 0.63 0.63 1007.2
20260509154405 0 193 2.0 3.0 0.07 0.63 0.63 1007.2
20260509153902 0 212 1.0 6.0 0.05 0.62 0.62 1007.3
20260509153359 0 188 2.0 4.0 0.05 0.62 0.62 1007.2
20260509152856 0 209 1.0 6.0 0.07 0.61 0.61 1007.4
20260509152352 0 205 2.0 3.0 0.07 0.61 0.61 1007.6
20260509151850 0 215 0.0 4.0 0.05 0.60 0.60 1007.6
20260509151345 0 205 2.0 3.0 0.05 0.60 0.60 1007.5
20260509150844 0 210 2.0 3.0 0.07 0.59 0.59 1007.6
20260509150341 0 213 1.0 2.0 0.07 0.59 0.59 1007.8
20260509145838 0 164 2.0 4.0 0.07 0.58 0.58 1007.7
20260509145332 0 210 1.0 2.0 0.12 0.58 0.58 1007.9
20260509144829 0 198 0.0 1.0 0.12 0.57 0.57 1008.1
20260509144326 0 203 2.0 6.0 0.12 0.56 0.56 1008.0
20260509143823 0 216 0.0 1.0 0.12 0.55 0.55 1007.9
20260509143321 0 216 0.0 3.0 0.12 0.54 0.54 1008.0
20260509142817 0 214 1.0 3.0 0.12 0.53 0.53 1008.0
20260509142313 0 208 1.0 3.0 0.07 0.52 0.52 1008.0
20260509141808 0 212 1.0 2.0 0.05 0.51 0.51 1008.0
20260509141306 0 212 0.0 1.0 0.12 0.51 0.51 1007.8
20260509140802 0 215 2.0 2.0 0.12 0.50 0.50 1007.8
20260509140259 0 209 1.0 3.0 0.05 0.49 0.49 1007.8
20260509135757 0 211 1.0 6.0 0.07 0.48 0.48 1007.7
20260509135254 0 180 2.0 3.0 0.07 0.47 0.47 1007.5
20260509134752 0 210 1.0 3.0 0.12 0.47 0.47 1007.6
20260509134249 0 206 1.0 2.0 0.05 0.46 0.46 1007.6
20260509133746 0 213 0.0 2.0 0.07 0.45 0.45 1007.6
20260509133242 0 213 0.0 1.0 0.00 0.44 0.44 1007.4
20260509132741 0 207 0.0 3.0 0.05 0.44 0.44 1007.4
20260509132240 0 212 0.0 1.0 0.05 0.44 0.44 1007.7
20260509131736 0 214 1.0 1.0 0.00 0.43 0.43 1007.5
20260509131232 0 196 3.0 3.0 0.07 0.43 0.43 1007.7
20260509130729 0 216 0.0 1.0 0.07 0.43 0.43 1007.9
20260509130224 0 209 0.0 2.0 0.05 0.42 0.42 1007.6
20260509125721 0 215 0.0 0.0 0.05 0.42 0.42 1007.7
20260509125218 0 215 0.0 1.0 0.00 0.41 0.41 1007.8
20260509124715 0 205 1.0 2.0 0.07 0.41 0.41 1007.7
20260509124211 0 207 0.0 1.0 0.07 0.41 0.41 1007.8
20260509123710 0 207 0.0 0.0 0.05 0.40 0.40 1007.7
20260509123206 0 207 0.0 1.0 0.05 0.40 0.40 1007.7
20260509122702 0 208 0.0 0.0 0.00 0.39 0.39 1007.8
20260509122159 0 207 1.0 2.0 0.07 0.39 0.39 1007.8
20260509121655 0 212 0.0 0.0 0.07 0.39 0.39 1007.9
20260509121154 0 212 0.0 0.0 0.05 0.38 0.38 1008.0
20260509120652 0 211 0.0 0.0 0.05 0.38 0.38 1007.9
20260509120149 0 212 0.0 0.0 0.00 0.37 0.37 1008.0
20260509115646 0 212 0.0 0.0 0.07 0.37 0.37 1008.0
20260509115144 0 206 0.0 1.0 0.07 0.37 0.37 1008.1
20260509114642 0 213 0.0 0.0 0.00 0.36 0.36 1008.0
20260509114141 0 210 0.0 2.0 0.00 0.36 0.36 1007.9
20260509113639 0 210 1.0 4.0 0.00 0.36 0.36 1008.0
20260509113136 0 206 0.0 2.0 0.00 0.36 0.36 1008.0
20260509112632 0 211 0.0 2.0 0.00 0.36 0.36 1007.9
20260509112129 0 211 1.0 2.0 0.00 0.36 0.36 1007.9
20260509111626 0 214 1.0 1.0 0.05 0.36 0.36 1008.0
20260509111123 0 209 0.0 2.0 0.05 0.36 0.36 1008.3
20260509110620 0 211 0.0 3.0 0.00 0.35 0.35 1008.1
20260509110117 0 208 0.0 1.0 0.00 0.35 0.35 1008.1
20260509105615 0 207 2.0 2.0 0.00 0.35 0.35 1008.2
20260509105113 0 209 0.0 2.0 0.07 0.35 0.35 1008.2
20260509104609 0 205 0.0 1.0 0.07 0.35 0.35 1008.2
20260509104108 0 201 0.0 1.0 0.00 0.34 0.34 1008.0
20260509103604 0 209 0.0 0.0 0.00 0.34 0.34 1008.0
20260509103102 0 212 0.0 1.0 0.12 0.34 0.34 1008.3
20260509102559 0 209 1.0 2.0 0.12 0.33 0.33 1008.2
20260509102056 0 211 0.0 0.0 0.07 0.32 0.32 1008.2
20260509101552 0 217 0.0 2.0 0.00 0.31 0.31 1008.2
20260509101049 0 213 0.0 2.0 0.05 0.31 0.31 1008.1
20260509100546 0 216 2.0 3.0 0.05 0.31 0.31 1008.0
20260509100044 0 191 2.0 3.0 0.00 0.30 0.30 1007.7
20260509095540 0 208 0.0 3.0 0.07 0.30 0.30 1008.0
20260509095038 0 213 0.0 3.0 0.12 0.30 0.30 1007.9
20260509094533 0 215 0.0 1.0 0.12 0.29 0.29 1008.2
20260509094031 0 208 2.0 4.0 0.12 0.28 0.28 1008.1
20260509093529 0 208 1.0 3.0 0.05 0.27 0.27 1008.1
20260509093026 0 197 1.0 3.0 0.12 0.26 0.26 1008.0
20260509092524 0 204 1.0 2.0 0.12 0.25 0.25 1008.0
20260509092023 0 205 0.0 0.0 0.07 0.24 0.24 1008.1
20260509091520 0 205 1.0 1.0 0.05 0.23 0.23 1008.0
20260509091016 0 212 0.0 1.0 0.05 0.23 0.23 1007.9
20260509090514 0 212 0.0 0.0 0.00 0.22 0.22 1008.0
20260509090011 0 215 0.0 0.0 0.07 0.22 0.22 1008.0
20260509085508 0 215 0.0 0.0 0.07 0.22 0.22 1008.1
20260509085004 0 215 0.0 0.0 0.00 0.21 0.21 1008.3
20260509084501 0 215 0.0 0.0 0.00 0.21 0.21 1008.2
20260509083958 0 215 0.0 0.0 0.00 0.21 0.21 1008.2
20260509083456 0 216 0.0 1.0 0.00 0.21 0.21 1008.2
20260509082952 0 212 0.0 0.0 0.00 0.21 0.21 1008.5
20260509082449 0 212 0.0 0.0 0.00 0.21 0.21 1008.2
20260509081946 0 205 0.0 0.0 0.07 0.21 0.21 1008.1
20260509081444 0 208 1.0 3.0 0.12 0.21 0.21 1008.0
20260509080941 0 207 0.0 3.0 0.12 0.20 0.20 1008.5
20260509080439 0 213 0.0 0.0 0.12 0.19 0.19 1008.7
20260509075937 0 214 0.0 0.0 0.05 0.18 0.18 1008.8
20260509075433 0 217 1.0 2.0 0.00 0.17 0.17 1008.8
20260509074931 0 219 0.0 2.0 0.07 0.17 0.17 1008.9
20260509074428 0 214 0.0 0.0 0.07 0.17 0.17 1008.5
20260509073925 0 211 0.0 0.0 0.00 0.16 0.16 1008.7
20260509073421 0 218 0.0 0.0 0.05 0.16 0.16 1008.6
20260509072918 0 213 0.0 2.0 0.12 0.16 0.16 1008.8
20260509072415 0 209 0.0 1.0 0.07 0.15 0.15 1008.6
20260509071911 0 211 0.0 2.0 0.05 0.14 0.14 1008.6
20260509071408 0 215 0.0 1.0 0.12 0.14 0.14 1008.8
20260509070906 0 212 0.0 2.0 0.12 0.13 0.13 1008.9
20260509070402 0 211 1.0 1.0 0.12 0.12 0.12 1008.7
20260509065858 0 211 2.0 3.0 0.12 0.11 0.11 1008.8
20260509065354 0 210 0.0 0.0 0.12 0.10 0.10 1008.9
20260509064850 0 219 3.0 3.0 0.07 0.09 0.09 1008.9
20260509064348 0 210 0.0 2.0 0.00 0.08 0.08 1008.8
20260509063846 0 203 2.0 2.0 0.07 0.08 0.08 1008.8
20260509063341 0 213 1.0 2.0 0.07 0.08 0.08 1008.8
20260509062839 0 205 1.0 2.0 0.05 0.07 0.07 1008.8
20260509062336 0 207 1.0 4.0 0.05 0.07 0.07 1009.0
20260509061833 0 215 0.0 0.0 0.07 0.06 0.06 1008.9
20260509061331 0 215 0.0 0.0 0.12 0.06 0.06 1008.8
20260509060828 0 215 0.0 0.0 0.05 0.05 0.05 1008.7
20260509060325 0 215 0.0 0.0 0.07 0.04 0.04 1008.8
20260509055820 0 215 0.0 0.0 0.07 0.04 0.04 1008.8
20260509055316 0 215 0.0 0.0 0.00 0.03 0.03 1008.7
20260509054813 0 215 0.0 0.0 0.00 0.03 0.03 1008.9
20260509054309 0 215 0.0 0.0 0.05 0.03 0.03 1009.0
20260509053808 0 215 0.0 0.0 0.00 0.02 0.02 1009.1
20260509053305 0 215 0.0 0.0 0.07 0.02 0.02 1008.9
20260509052803 0 215 0.0 0.0 0.12 0.02 0.02 1009.1
20260509052300 0 216 0.0 0.0 0.05 0.01 0.01 1009.1
20260509051758 0 210 2.0 3.0 0.00 0.00 0.00 1009.1
20260509051256 0 207 0.0 1.0 0.00 0.00 0.00 1008.9
20260509050752 0 207 0.0 0.0 0.00 0.00 0.00 1008.9
20260509050248 0 215 0.0 0.0 0.00 0.00 0.00 1008.9
20260509045746 0 207 0.0 0.0 0.00 0.00 0.00 1009.0
20260509045242 0 207 0.0 0.0 0.00 0.00 0.00 1008.9
20260509044740 0 207 0.0 0.0 0.00 0.00 0.00 1008.9
20260509044238 0 207 0.0 0.0 0.00 0.00 0.00 1009.0
20260509043734 0 207 0.0 0.0 0.00 0.00 0.00 1009.2
20260509043230 0 207 0.0 0.0 0.00 0.00 0.00 1009.0
20260509042726 0 207 0.0 0.0 0.00 0.00 0.00 1009.1
20260509042222 0 207 0.0 0.0 0.00 0.00 0.00 1009.4
20260509041719 0 211 0.0 0.0 0.00 0.00 0.00 1009.4
20260509041217 0 211 0.0 0.0 0.00 0.00 0.00 1009.2
20260509040715 0 207 0.0 0.0 0.00 0.00 0.00 1009.5
20260509040211 0 207 0.0 0.0 0.00 0.00 0.00 1009.4
20260509035708 0 211 0.0 0.0 0.00 0.04 0.04 1009.4
20260509035205 0 207 0.0 0.0 0.00 0.04 0.04 1009.1
20260509034702 0 207 0.0 0.0 0.00 0.04 0.04 1009.5
20260509034200 0 207 0.0 0.0 0.00 0.04 0.04 1009.5